This is the latest recevied weather packets stored in our database for station/object KA0EGE. If no packets are shown the sender has not sent any weather packets the latest 10 day(s).
| Time | Temp. | Humidity | Pressure | Rain* | Wind** | Luminosity | Snow |
|---|---|---|---|---|---|---|---|
| 1777688745 | 13.89° C | 99% | 1014.7 hPa | 0 mm | - | 0 W/m² | - |
| 1777688443 | 13.89° C | 99% | 1014.3 hPa | 1.78 mm | - | 0 W/m² | - |
| 1777688140 | 13.89° C | 99% | 1014.1 hPa | 1.78 mm | - | 0 W/m² | - |
| 1777687837 | 14.44° C | 99% | 1014.3 hPa | 1.27 mm | - | 0 W/m² | - |
| 1777687534 | 14.44° C | 99% | 1014.5 hPa | 6.1 mm | - | 0 W/m² | - |
| 1777687231 | 14.44° C | 99% | 1014.3 hPa | 7.87 mm | - | 0 W/m² | - |
| 1777686929 | 14.44° C | 99% | 1014.6 hPa | 8.89 mm | - | 0 W/m² | - |
| 1777686625 | 14.44° C | 99% | 1014.7 hPa | 13.72 mm | - | 0 W/m² | - |
| 1777686322 | 14.44° C | 99% | 1015 hPa | 8.89 mm | - | 0 W/m² | - |
| 1777686019 | 14.44° C | 99% | 1015.1 hPa | 4.32 mm | - | 0 W/m² | - |
| 1777685715 | 15° C | 99% | 1015 hPa | 4.32 mm | - | 0 W/m² | - |
| 1777685411 | 15° C | 99% | 1014.6 hPa | 6.1 mm | - | 0 W/m² | - |
| 1777685109 | 15° C | 99% | 1014.3 hPa | 4.83 mm | - | 0 W/m² | - |
| 1777684806 | 15.56° C | 99% | 1014.5 hPa | 3.56 mm | - | 0 W/m² | - |
| 1777684502 | 15.56° C | 99% | 1014.9 hPa | 3.05 mm | - | 0 W/m² | - |
| 1777684199 | 15.56° C | 99% | 1014.8 hPa | 1.27 mm | - | 0 W/m² | - |
| 1777683896 | 15.56° C | 99% | 1014.5 hPa | 1.78 mm | - | 0 W/m² | - |
| 1777683592 | 15.56° C | 99% | 1013.9 hPa | 3.05 mm | - | 0 W/m² | - |
| 1777683290 | 16.11° C | 99% | 1014.2 hPa | 1.27 mm | - | 0 W/m² | - |
| 1777682988 | 16.11° C | 99% | 1013.8 hPa | 0 mm | - | 0 W/m² | - |
| 1777682684 | 16.11° C | 99% | 1013.9 hPa | 1.78 mm | - | 0 W/m² | - |
| 1777682381 | 16.11° C | 99% | 1014 hPa | 1.78 mm | - | 0 W/m² | - |
| 1777682078 | 16.11° C | 99% | 1013.7 hPa | 0 mm | - | 0 W/m² | - |
| 1777681774 | 16.11° C | 99% | 1013.7 hPa | 1.27 mm | - | 0 W/m² | - |
| 1777681472 | 16.11° C | 99% | 1014 hPa | 3.05 mm | - | 0 W/m² | - |
* Rain latest hour (hover to see other rain measurements)
** Current wind speed in m/s (hover to see current wind gust speed)